Flag for U.S.A. Weather past 2 weeks in Gainesville, Florida, U.S.A.

Now
80 °F

Sunny.


Feels Like: 85 °F
Forecast: 74 / 93 °F
Wind: 7 mph from Northwest

Location: Gainesville Regional Airport

Current Time: Aug 21, 2014 at 10:14:15 AM

Latest Report: Aug 21, 2014 at 8:53 AM


Visibility: 10 mi

Pressure: 30.13 "Hg

Humidity: 85%

Dew point: 75 °F

Location of GainesvilleLocation

Historic Weather in Gainesville — Graph

°F

Gainesville temperature yesterday

Maximum temperature yesterday: 92 °F (at 4:53 PM)
Minimum temperature yesterday: 73 °F (at 6:53 AM)
Average temperature yesterday: 83 °F

Past Weeks' High & Low Weather Summary

 TemperatureHumidityPressure
High94 °F (Aug 7, 3:53 PM)100% (Aug 10, 1:53 AM)30.13 "Hg (Aug 10, 1:53 AM)
Low71 °F (Aug 15, 4:53 AM)49% (Aug 6, 3:53 PM)29.93 "Hg (Aug 12, 5:53 PM)
Average80 °F83%30.01 "Hg
* Reported Aug 6 8:53 AM — Aug 21 8:53 AM, Gainesville, Weather by CustomWeather, © 2014

Note: Actual official high and low records may vary slightly from our data, if they occured in-between our weather recording intervals... More about our weather records

Advertising

Gainesville weather history for previous 24 hours

 ConditionsComfort  
Time TempWeatherWind HumidityBarometerVisibility
8:53 AM
Aug 21
80 °FSunny.7 mph85%30.13 "Hg10 mi
7:53 AM77 °FClear.5 mph90%30.10 "Hg8 mi
6:53 AM75 °FClear.3 mph94%30.07 "Hg8 mi
5:53 AM76 °FClear.3 mph94%30.06 "Hg9 mi
4:53 AM77 °FClear.3 mph94%30.06 "Hg9 mi
3:53 AM78 °FClear.5 mph90%30.06 "Hg10 mi
2:53 AM78 °FClear.5 mph90%30.06 "Hg10 mi
1:53 AM78 °FClear.5 mph90%30.07 "Hg10 mi
12:53 AM79 °FClear.6 mph88%30.09 "Hg10 mi
11:53 PM
Aug 20
79 °FClear.5 mph88%30.09 "Hg10 mi
10:53 PM81 °FClear.7 mph82%30.09 "Hg10 mi
9:53 PM83 °FClear.15 mph77%30.07 "Hg10 mi
8:53 PM79 °FSunny.9 mph88%30.05 "Hg10 mi
7:53 PM85 °FSunny.3 mph65%30.03 "Hg10 mi
6:53 PM90 °FSunny.6 mph50%30.03 "Hg10 mi
5:53 PM91 °FSunny.10 mph50%30.01 "Hg10 mi
4:53 PM92 °FSunny.8 mph49%30.02 "Hg10 mi
3:53 PM90 °FPassing clouds.8 mph57%30.03 "Hg10 mi
3:04 PM87 °FThundershowers. Passing clouds.10 mph63%30.05 "Hg10 mi
2:53 PM88 °FPassing clouds.12 mph61%30.05 "Hg10 mi
1:53 PM91 °FScattered clouds.14 mph56%30.06 "Hg10 mi
12:53 PM90 °FPassing clouds.8 mph59%30.07 "Hg10 mi
11:53 AM89 °FScattered clouds.10 mph61%30.08 "Hg10 mi
10:53 AM88 °FScattered clouds.8 mph65%30.08 "Hg10 mi
Weather by CustomWeather, © 2014

See weather overviewHow to use our weather pages